Location: Zagreb
(45.8000°N, 16.0000°E)
Time: 01:17:38
(UTC+02:00)

Transit 2A Rocket - Pass Details

Date: 27 January 2022
Orbit: 592 x 909 km, 66.7° (Epoch: 26 May)

Event Time Altitude Azimuth Distance (km) Brightness Sun altitude
Rises 19:34:47 0° 243° (WSW) 3,506 9.3 -27.9°
Reaches altitude 10° 19:37:32 10° 253° (WSW) 2,586 8.6 -28.4°
Maximum altitude 19:42:58 33° 317° (NW) 1,478 6.8 -29.3°
Enters shadow 19:45:59 22° 3° (N) 1,888 7.0 -29.8°
Drops below altitude 10° 19:48:24 10° 20° (NNE) 2,576 - -30.3°
Sets 19:51:09 0° 30° (NNE) 3,492 - -30.7°
